TimeCST,TemperatureF,Dew PointF,Humidity,Sea Level PressureIn,VisibilityMPH,Wind Direction,Wind SpeedMPH,Gust SpeedMPH,PrecipitationIn,Events,Conditions,WindDirDegrees,DateUTC
12:52 AM,10.9,7.0,84,30.17,8.0,SSE,8.1,-,N/A,,Clear,150,2013-01-02 06:52:00
1:52 AM,10.9,7.0,84,30.16,7.0,SE,5.8,-,N/A,,Clear,130,2013-01-02 07:52:00
2:52 AM,10.9,7.0,84,30.15,6.0,SSE,9.2,-,N/A,,Clear,150,2013-01-02 08:52:00
3:52 AM,10.9,7.0,84,30.12,7.0,SE,9.2,-,N/A,,Clear,140,2013-01-02 09:52:00
4:52 AM,12.0,8.1,84,30.12,7.0,SSE,6.9,-,N/A,,Clear,150,2013-01-02 10:52:00
5:52 AM,10.4,6.8,85,30.06,7.0,SE,6.9,-,N/A,,Clear,140,2013-01-02 11:52:00
6:52 AM,12.9,8.1,81,30.12,7.0,South,5.8,-,N/A,,Clear,180,2013-01-02 12:52:00
7:52 AM,10.9,7.0,84,30.11,7.0,SE,5.8,-,N/A,,Mostly Cloudy,140,2013-01-02 13:52:00
8:52 AM,15.8,10.4,79,30.07,7.0,SSE,3.5,-,N/A,,Mostly Cloudy,160,2013-01-02 14:52:00
9:52 AM,19.0,12.9,77,30.14,7.0,SE,3.5,-,N/A,,Overcast,130,2013-01-02 15:52:00
10:29 AM,21.2,14.0,74,30.09,7.0,SE,3.5,-,N/A,,Overcast,130,2013-01-02 16:29:00
10:52 AM,21.9,16.0,78,30.15,7.0,Calm,Calm,-,N/A,,Overcast,0,2013-01-02 16:52:00
11:11 AM,23.0,15.8,74,30.09,8.0,Calm,Calm,-,0.00,Snow,Light Snow,0,2013-01-02 17:11:00
11:52 AM,26.1,19.0,75,30.13,6.0,Calm,Calm,-,0.00,Snow,Light Snow,0,2013-01-02 17:52:00
12:52 PM,30.0,21.9,72,30.11,10.0,Calm,Calm,-,N/A,,Overcast,0,2013-01-02 18:52:00
1:15 PM,33.8,23.0,65,30.06,10.0,Variable,3.5,-,N/A,,Mostly Cloudy,0,2013-01-02 19:15:00
1:52 PM,33.1,25.0,72,30.09,10.0,NW,9.2,-,N/A,,Scattered Clouds,310,2013-01-02 19:52:00
2:52 PM,34.0,27.0,75,30.11,10.0,WNW,10.4,-,N/A,,Overcast,290,2013-01-02 20:52:00
3:18 PM,33.8,26.6,75,30.08,10.0,WNW,9.2,-,0.00,,Overcast,290,2013-01-02 21:18:00
3:52 PM,34.0,28.0,79,30.13,10.0,WNW,9.2,-,0.00,,Overcast,300,2013-01-02 21:52:00
4:52 PM,34.0,27.0,75,30.16,9.0,WNW,9.2,-,N/A,,Overcast,300,2013-01-02 22:52:00
5:52 PM,33.1,26.1,75,30.17,10.0,WNW,9.2,-,N/A,,Overcast,300,2013-01-02 23:52:00
6:52 PM,33.1,26.1,75,30.19,10.0,WNW,6.9,-,N/A,,Overcast,290,2013-01-03 00:52:00
7:52 PM,33.1,26.1,75,30.20,10.0,WNW,6.9,-,N/A,,Overcast,300,2013-01-03 01:52:00
8:43 PM,30.2,24.8,80,30.16,10.0,NW,8.1,-,N/A,,Overcast,310,2013-01-03 02:43:00
8:52 PM,32.0,25.0,75,30.21,10.0,WNW,11.5,-,N/A,,Overcast,300,2013-01-03 02:52:00
9:04 PM,32.0,24.8,75,30.17,10.0,NW,10.4,-,N/A,,Overcast,310,2013-01-03 03:04:00
9:52 PM,32.0,25.0,75,30.23,10.0,WNW,5.8,-,N/A,,Overcast,290,2013-01-03 03:52:00
10:52 PM,30.0,24.1,79,30.25,10.0,NW,6.9,-,N/A,,Overcast,320,2013-01-03 04:52:00
11:52 PM,30.9,25.0,79,30.26,10.0,NW,8.1,-,N/A,,Overcast,320,2013-01-03 05:52:00